Location: �perlecques
(50.8057°N, 2.1521°E)
Time: 07:17:34
(UTC+00:00)

Vanguard 1 Rocket - Pass Details

Date: 31 July 2021
Orbit: 650 x 4226 km, 34.3° (Epoch: 22 September)

Event Time Altitude Azimuth Distance (km) Brightness Sun altitude
Rises 10:25:19 0° 231° (SW) 7,808 12.2 52.5°
Reaches altitude 10° 10:32:05 10° 224° (SW) 6,269 11.9 53.2°
Maximum altitude 10:46:16 31° 172° (S) 3,385 11.6 54.4°
Drops below altitude 10° 10:54:46 10° 115° (ESE) 3,712 11.1 55.0°
Sets 10:57:35 0° 104° (ESE) 4,324 11.2 55.2°
